�������l�o���
Date,Time,MP-1(��Sv/h),MP-2(��Sv/h),MP-3(��Sv/h),MP-4(��Sv/h),MP-5(��Sv/h),MP-6(��Sv/h),MP-7(��Sv/h),MP-8(��Sv/h),����,����(m/s),���J
2021/02/14,00:00,0.669,0.967,0.613,1.217,0.864,0.381,0.673,0.633,��,2.2,��
2021/02/14,00:10,0.669,0.968,0.614,1.219,0.863,0.381,0.676,0.635,���쐼,2.3,��
2021/02/14,00:20,0.671,0.966,0.616,1.222,0.862,0.381,0.676,0.634,�쐼,3.1,��
2021/02/14,00:30,0.670,0.966,0.613,1.219,0.863,0.381,0.677,0.634,�쐼,3.1,��
2021/02/14,00:40,0.668,0.966,0.614,1.219,0.863,0.382,0.676,0.634,�쐼,4.9,��
2021/02/14,00:50,0.670,0.969,0.613,1.219,0.865,0.379,0.677,0.636,�쐼,6.2,��
2021/02/14,01:00,0.670,0.968,0.613,1.220,0.864,0.380,0.676,0.634,�쐼,6.5,��
2021/02/14,01:10,0.669,0.969,0.613,1.219,0.862,0.380,0.676,0.636,�쐼,4.9,��
2021/02/14,01:20,0.668,0.966,0.613,1.221,0.861,0.380,0.677,0.634,�쐼,3.2,��
2021/02/14,01:30,0.670,0.967,0.613,1.219,0.863,0.381,0.675,0.633,�쐼,3.2,��
2021/02/14,01:40,0.669,0.966,0.612,1.218,0.863,0.380,0.677,0.634,��쐼,3.5,��
2021/02/14,01:50,0.671,0.966,0.614,1.219,0.862,0.381,0.675,0.635,��쐼,3.5,��
2021/02/14,02:00,0.669,0.964,0.613,1.219,0.864,0.380,0.676,0.635,�쐼,3.5,��
2021/02/14,02:10,0.671,0.967,0.613,1.220,0.861,0.381,0.675,0.634,���쐼,2.9,��
2021/02/14,02:20,0.669,0.968,0.614,1.217,0.866,0.380,0.675,0.635,�쐼,1.7,��
2021/02/14,02:30,0.668,0.967,0.612,1.220,0.863,0.381,0.674,0.633,��쓌,1.5,��
2021/02/14,02:40,0.669,0.967,0.612,1.219,0.865,0.382,0.675,0.635,��쐼,3.2,��
2021/02/14,02:50,0.670,0.966,0.614,1.218,0.863,0.380,0.676,0.632,��쐼,3.9,��
2021/02/14,03:00,0.668,0.967,0.612,1.219,0.863,0.381,0.675,0.635,��쐼,3.8,��
2021/02/14,03:10,0.669,0.964,0.614,1.218,0.864,0.380,0.674,0.633,��쐼,3.3,��
2021/02/14,03:20,0.668,0.966,0.612,1.219,0.864,0.382,0.674,0.633,��쐼,2.8,��
2021/02/14,03:30,0.669,0.964,0.613,1.221,0.863,0.380,0.676,0.634,��,4.0,��
2021/02/14,03:40,0.669,0.967,0.613,1.218,0.863,0.380,0.674,0.634,��쐼,4.3,��
2021/02/14,03:50,0.669,0.967,0.613,1.220,0.862,0.380,0.675,0.635,��쐼,5.7,��
2021/02/14,04:00,0.668,0.966,0.613,1.219,0.862,0.380,0.674,0.633,��쐼,5.8,��
2021/02/14,04:10,0.669,0.964,0.615,1.221,0.861,0.381,0.676,0.634,��쐼,5.9,��
2021/02/14,04:20,0.668,0.965,0.614,1.221,0.862,0.380,0.675,0.634,��쐼,5.3,��
2021/02/14,04:30,0.669,0.966,0.613,1.219,0.860,0.380,0.675,0.634,��쐼,5.9,��
2021/02/14,04:40,0.670,0.967,0.613,1.220,0.862,0.381,0.674,0.634,��쐼,6.3,��
2021/02/14,04:50,0.668,0.967,0.613,1.218,0.863,0.381,0.674,0.633,��쐼,6.1,��
2021/02/14,05:00,0.669,0.967,0.614,1.219,0.865,0.380,0.675,0.634,��쐼,6.8,��
2021/02/14,05:10,0.669,0.966,0.614,1.217,0.861,0.381,0.675,0.634,��쐼,5.7,��
2021/02/14,05:20,0.668,0.966,0.612,1.218,0.861,0.380,0.675,0.634,��쐼,5.2,��
2021/02/14,05:30,0.670,0.967,0.612,1.219,0.862,0.381,0.675,0.634,��쐼,4.7,��
2021/02/14,05:40,0.668,0.967,0.614,1.220,0.861,0.380,0.676,0.633,��쐼,4.8,��
2021/02/14,05:50,0.670,0.966,0.612,1.220,0.863,0.380,0.676,0.634,��쐼,4.2,��
2021/02/14,06:00,0.669,0.964,0.614,1.220,0.864,0.380,0.676,0.634,��쐼,4.5,��
2021/02/14,06:10,0.669,0.965,0.612,1.219,0.861,0.379,0.675,0.633,��쐼,5.3,��
2021/02/14,06:20,0.668,0.965,0.613,1.218,0.865,0.380,0.675,0.634,��쐼,5.3,��
2021/02/14,06:30,0.669,0.966,0.614,1.220,0.863,0.381,0.675,0.632,�쐼,6.0,��
2021/02/14,06:40,0.669,0.967,0.613,1.220,0.860,0.380,0.675,0.634,��쐼,6.2,��
2021/02/14,06:50,0.667,0.967,0.613,1.220,0.862,0.379,0.675,0.633,��쐼,4.9,��
2021/02/14,07:00,0.668,0.965,0.614,1.220,0.860,0.380,0.674,0.633,��쐼,5.0,��
2021/02/14,07:10,0.669,0.967,0.613,1.220,0.862,0.381,0.675,0.634,��쐼,4.4,��
2021/02/14,07:20,0.670,0.967,0.612,1.218,0.864,0.380,0.675,0.634,��,3.8,��
2021/02/14,07:30,0.669,0.966,0.612,1.219,0.862,0.381,0.674,0.634,��,4.8,��
2021/02/14,07:40,0.671,0.968,0.614,1.220,0.862,0.382,0.675,0.632,��쐼,5.0,��
2021/02/14,07:50,0.670,0.965,0.614,1.219,0.861,0.381,0.675,0.634,��쐼,5.2,��
2021/02/14,08:00,0.669,0.968,0.614,1.220,0.864,0.381,0.676,0.633,��쐼,6.0,��
2021/02/14,08:10,0.670,0.969,0.614,1.220,0.864,0.382,0.674,0.634,��쐼,5.8,��
2021/02/14,08:20,0.670,0.969,0.612,1.221,0.861,0.382,0.676,0.633,��쐼,4.5,��
2021/02/14,08:30,0.672,0.967,0.615,1.221,0.862,0.381,0.677,0.633,��쐼,3.6,��
2021/02/14,08:40,0.669,0.969,0.614,1.220,0.865,0.381,0.677,0.634,��쐼,3.5,��
2021/02/14,08:50,0.671,0.969,0.615,1.222,0.861,0.382,0.677,0.633,��쐼,5.0,��
2021/02/14,09:00,0.670,0.968,0.614,1.220,0.865,0.381,0.677,0.633,��쐼,4.8,��
2021/02/14,09:10,0.672,0.970,0.615,1.222,0.863,0.383,0.676,0.635,��,4.1,��
2021/02/14,09:20,0.672,0.967,0.614,1.222,0.864,0.381,0.674,0.635,��,3.7,��
2021/02/14,09:30,0.670,0.969,0.614,1.220,0.865,0.382,0.676,0.635,��쓌,3.5,��
2021/02/14,09:40,0.672,0.967,0.616,1.219,0.867,0.383,0.676,0.635,��쓌,4.0,��
2021/02/14,09:50,0.671,0.967,0.614,1.222,0.866,0.383,0.676,0.634,��쓌,4.6,��
2021/02/14,10:00,0.671,0.966,0.615,1.222,0.867,0.382,0.675,0.634,��쓌,3.8,��
2021/02/14,10:10,0.672,0.965,0.617,1.222,0.866,0.381,0.677,0.635,��쓌,4.8,��
2021/02/14,10:20,0.672,0.967,0.618,1.222,0.865,0.382,0.676,0.636,��,4.7,��
2021/02/14,10:30,0.671,0.968,0.616,1.220,0.865,0.382,0.674,0.635,��,4.4,��
2021/02/14,10:40,0.669,0.967,0.614,1.223,0.865,0.382,0.675,0.634,��,4.6,��
2021/02/14,10:50,0.669,0.968,0.614,1.222,0.865,0.382,0.676,0.635,��,4.2,��
2021/02/14,11:00,0.670,0.968,0.615,1.221,0.863,0.381,0.677,0.633,��,5.8,��
2021/02/14,11:10,0.669,0.970,0.614,1.220,0.862,0.381,0.677,0.633,��,7.3,��
2021/02/14,11:20,0.671,0.969,0.613,1.220,0.862,0.382,0.676,0.631,��,7.2,��
2021/02/14,11:30,0.670,0.970,0.614,1.222,0.862,0.380,0.676,0.633,��쓌,7.6,��
2021/02/14,11:40,0.671,0.970,0.613,1.222,0.865,0.382,0.676,0.634,��,7.9,��
2021/02/14,11:50,0.670,0.970,0.614,1.223,0.865,0.380,0.675,0.634,��,7.2,��
2021/02/14,12:00,0.671,0.970,0.614,1.223,0.865,0.381,0.674,0.635,��쓌,7.5,��
2021/02/14,12:10,0.670,0.968,0.613,1.222,0.864,0.379,0.676,0.633,��쓌,9.7,��
2021/02/14,12:20,0.671,0.971,0.614,1.223,0.867,0.380,0.676,0.635,��,7.4,��
2021/02/14,12:30,0.670,0.972,0.613,1.224,0.866,0.382,0.675,0.636,��,6.8,��
2021/02/14,12:40,0.670,0.970,0.613,1.222,0.867,0.381,0.677,0.634,��,7.7,��
2021/02/14,12:50,0.670,0.969,0.614,1.223,0.866,0.382,0.676,0.634,��,8.4,��
2021/02/14,13:00,0.670,0.970,0.613,1.220,0.868,0.382,0.677,0.632,��,10.2,��
2021/02/14,13:10,0.670,0.972,0.614,1.221,0.867,0.383,0.676,0.634,��쓌,11.7,��
2021/02/14,13:20,0.671,0.970,0.615,1.222,0.865,0.382,0.677,0.633,��,10.3,��
2021/02/14,13:30,0.671,0.971,0.614,1.223,0.866,0.382,0.677,0.632,��,10.5,��
2021/02/14,13:40,0.670,0.972,0.614,1.222,0.864,0.380,0.676,0.631,��,10.2,��
2021/02/14,13:50,0.671,0.971,0.614,1.221,0.867,0.380,0.676,0.634,��,9.0,��
2021/02/14,14:00,0.672,0.970,0.614,1.221,0.866,0.382,0.676,0.634,��,9.1,��
2021/02/14,14:10,0.673,0.972,0.613,1.223,0.865,0.381,0.675,0.632,��,9.2,��
2021/02/14,14:20,0.671,0.972,0.613,1.224,0.867,0.381,0.677,0.631,��,7.8,��
2021/02/14,14:30,0.670,0.970,0.614,1.223,0.867,0.381,0.677,0.634,��,8.6,��
2021/02/14,14:40,0.672,0.970,0.615,1.223,0.867,0.381,0.675,0.633,��,7.6,��
2021/02/14,14:50,0.671,0.971,0.614,1.223,0.867,0.382,0.675,0.631,��,8.7,��
2021/02/14,15:00,0.671,0.971,0.613,1.223,0.863,0.382,0.678,0.632,��,8.5,��
2021/02/14,15:10,0.671,0.972,0.616,1.225,0.866,0.382,0.677,0.633,��쓌,9.3,��
2021/02/14,15:20,0.671,0.971,0.613,1.224,0.866,0.381,0.676,0.632,��,8.8,��
2021/02/14,15:30,0.670,0.971,0.615,1.222,0.866,0.381,0.675,0.633,��,10.8,��
2021/02/14,15:40,0.671,0.969,0.614,1.221,0.866,0.380,0.674,0.633,��,10.0,��
2021/02/14,15:50,0.670,0.967,0.613,1.223,0.866,0.381,0.677,0.632,��,7.5,��
2021/02/14,16:00,0.671,0.971,0.614,1.225,0.868,0.383,0.675,0.632,��,8.2,��
2021/02/14,16:10,0.669,0.972,0.615,1.222,0.865,0.383,0.677,0.633,��,7.0,��
2021/02/14,16:20,0.671,0.970,0.615,1.225,0.866,0.384,0.676,0.632,��,7.7,��
2021/02/14,16:30,0.671,0.973,0.614,1.224,0.866,0.383,0.675,0.635,��,8.4,��
2021/02/14,16:40,0.669,0.973,0.615,1.222,0.866,0.384,0.675,0.635,��,9.0,��
2021/02/14,16:50,0.668,0.971,0.615,1.224,0.865,0.383,0.676,0.637,��,8.0,��
2021/02/14,17:00,0.671,0.971,0.615,1.223,0.866,0.383,0.676,0.634,��쐼,7.0,��
2021/02/14,17:10,0.672,0.970,0.615,1.223,0.865,0.383,0.676,0.637,��쐼,8.1,��
2021/02/14,17:20,0.671,0.972,0.615,1.224,0.866,0.383,0.677,0.635,��,8.5,��
2021/02/14,17:30,0.670,0.971,0.614,1.221,0.867,0.382,0.677,0.636,��,8.1,��
2021/02/14,17:40,0.674,0.972,0.616,1.221,0.866,0.383,0.677,0.635,��쐼,9.7,��
2021/02/14,17:50,0.674,0.972,0.618,1.220,0.866,0.384,0.676,0.635,��,9.3,��
2021/02/14,18:00,0.671,0.973,0.617,1.222,0.868,0.383,0.677,0.634,��,8.4,��
2021/02/14,18:10,0.674,0.972,0.617,1.222,0.869,0.384,0.677,0.634,��,8.4,��
2021/02/14,18:20,0.673,0.973,0.616,1.225,0.868,0.383,0.677,0.635,��,8.8,��
2021/02/14,18:30,0.673,0.973,0.616,1.223,0.867,0.383,0.678,0.634,��,8.4,��
2021/02/14,18:40,0.673,0.973,0.617,1.223,0.866,0.382,0.678,0.635,��,8.9,��
2021/02/14,18:50,0.673,0.972,0.616,1.222,0.869,0.382,0.677,0.636,��,9.1,��
2021/02/14,19:00,0.674,0.974,0.615,1.224,0.869,0.383,0.677,0.635,��쐼,8.3,��
2021/02/14,19:10,0.673,0.974,0.616,1.223,0.869,0.382,0.676,0.635,��쐼,7.6,��
2021/02/14,19:20,0.672,0.970,0.618,1.223,0.870,0.384,0.678,0.636,��,7.8,��
2021/02/14,19:30,0.673,0.972,0.614,1.223,0.869,0.385,0.678,0.637,��쐼,7.5,��
2021/02/14,19:40,0.674,0.974,0.615,1.223,0.869,0.382,0.678,0.635,��,6.7,��
2021/02/14,19:50,0.673,0.974,0.615,1.221,0.869,0.382,0.677,0.634,��쐼,6.6,��
2021/02/14,20:00,0.673,0.973,0.616,1.221,0.867,0.381,0.677,0.637,��쐼,6.4,��
2021/02/14,20:10,0.673,0.971,0.617,1.223,0.866,0.382,0.678,0.635,��쐼,6.7,��
2021/02/14,20:20,0.674,0.972,0.616,1.221,0.867,0.382,0.676,0.635,��,7.5,��
2021/02/14,20:30,0.673,0.972,0.615,1.222,0.868,0.381,0.677,0.635,��쐼,7.6,��
2021/02/14,20:40,0.673,0.969,0.617,1.223,0.869,0.382,0.679,0.636,��,8.0,��
2021/02/14,20:50,0.674,0.971,0.616,1.221,0.868,0.383,0.678,0.636,��쐼,7.8,��
2021/02/14,21:00,0.674,0.969,0.616,1.222,0.867,0.383,0.677,0.636,��쐼,7.3,��
2021/02/14,21:10,0.672,0.973,0.614,1.222,0.868,0.383,0.677,0.635,��쐼,6.4,��
2021/02/14,21:20,0.671,0.973,0.616,1.222,0.867,0.383,0.678,0.635,��쐼,6.2,��
2021/02/14,21:30,0.674,0.972,0.615,1.223,0.867,0.383,0.677,0.634,��쐼,6.6,��
2021/02/14,21:40,0.674,0.974,0.615,1.222,0.870,0.382,0.678,0.636,��쐼,7.3,��
2021/02/14,21:50,0.673,0.971,0.616,1.225,0.869,0.383,0.678,0.634,��,7.5,��
2021/02/14,22:00,0.672,0.971,0.617,1.220,0.870,0.383,0.677,0.636,��,7.8,��
2021/02/14,22:10,0.673,0.973,0.616,1.222,0.867,0.382,0.679,0.635,��,7.9,��
2021/02/14,22:20,0.673,0.970,0.615,1.223,0.866,0.383,0.678,0.634,��쐼,7.1,��
2021/02/14,22:30,0.672,0.972,0.616,1.222,0.866,0.383,0.677,0.634,��,7.8,��
2021/02/14,22:40,0.672,0.972,0.615,1.221,0.869,0.383,0.677,0.635,��,9.3,��
2021/02/14,22:50,0.673,0.971,0.615,1.221,0.867,0.382,0.677,0.635,��,8.2,��
2021/02/14,23:00,0.673,0.970,0.616,1.222,0.867,0.382,0.676,0.635,��,7.6,��
2021/02/14,23:10,0.674,0.972,0.616,1.221,0.869,0.382,0.678,0.635,��,7.5,��
2021/02/14,23:20,0.674,0.971,0.616,1.221,0.867,0.383,0.677,0.635,��,8.2,��
2021/02/14,23:30,0.674,0.973,0.616,1.223,0.868,0.383,0.678,0.633,��,9.9,��
2021/02/14,23:40,0.673,0.972,0.614,1.222,0.869,0.381,0.677,0.634,��,8.2,��
2021/02/14,23:50,0.671,0.970,0.615,1.222,0.866,0.382,0.678,0.636,��,7.9,��
